LTU9PK EDDL-EDDS

Flight info

Callsign LTU9PK
Flight time 0h 37m
Altitude 24000
Route KUMIK5Z/05R KUMIK L603 BOMBI N850 KRH T128 BADSO BADSO2A
Aircraft A320/M-SDE3FGHIRWY/LB1

Departure

Time 2026-04-30 18:10
Airport Düsseldorf Airport (EDDL)

Arrival

Time 2026-04-30 18:47
Airport Stuttgart Airport (EDDS)
Time Latitude Longitude Altitude Speed Heading
2026-04-30 17:53 51.28109 6.76538 131 ft 0 kts 96°
2026-04-30 18:02 51.28107 6.76440 126 ft 4 kts 63°
2026-04-30 18:03 51.28091 6.76416 128 ft 0 kts
2026-04-30 18:05 51.28105 6.76407 126 ft 4 kts 326°
2026-04-30 18:06 51.28189 6.76147 129 ft 7 kts 232°
2026-04-30 18:07 51.28034 6.75820 126 ft 15 kts 233°
2026-04-30 18:08 51.28032 6.75501 125 ft 13 kts 340°
2026-04-30 18:09 51.28843 6.77046 134 ft 144 kts 53°
2026-04-30 18:10 51.31501 6.82647 3003 ft 146 kts 59°
2026-04-30 18:11 51.33944 6.87914 4509 ft 191 kts 61°
2026-04-30 18:11 51.35078 6.94682 5958 ft 228 kts 99°
2026-04-30 18:12 51.34312 7.02409 8207 ft 249 kts 100°
2026-04-30 18:13 51.33745 7.08037 9788 ft 263 kts 100°
2026-04-30 18:13 51.32907 7.16296 11112 ft 310 kts 99°
2026-04-30 18:14 51.32176 7.24820 12023 ft 347 kts 96°
2026-04-30 18:15 51.31165 7.36554 14167 ft 362 kts 105°
2026-04-30 18:15 51.27075 7.46867 16071 ft 377 kts 127°
2026-04-30 18:16 51.23690 7.53370 17335 ft 384 kts 127°
2026-04-30 18:16 51.20248 7.60006 18596 ft 392 kts 127°
2026-04-30 18:17 51.18506 7.63368 19140 ft 396 kts 127°
2026-04-30 18:17 51.16708 7.66714 19688 ft 400 kts 131°
2026-04-30 18:17 51.12350 7.72395 20730 ft 409 kts 139°
2026-04-30 18:18 51.10117 7.75123 21229 ft 411 kts 139°
2026-04-30 18:18 51.07810 7.77944 21728 ft 414 kts 140°
2026-04-30 18:18 51.05518 7.80745 22190 ft 418 kts 140°
2026-04-30 18:18 51.03244 7.83530 22637 ft 420 kts 140°
2026-04-30 18:19 51.00890 7.86410 23089 ft 423 kts 140°
2026-04-30 18:19 50.98544 7.89274 23531 ft 426 kts 140°
2026-04-30 18:19 50.96216 7.92106 23935 ft 429 kts 140°
2026-04-30 18:19 50.93812 7.95028 24259 ft 431 kts 140°
2026-04-30 18:20 50.91427 7.97926 24343 ft 435 kts 140°
2026-04-30 18:20 50.89821 7.99875 24366 ft 442 kts 140°
2026-04-30 18:20 50.86556 8.03830 24356 ft 450 kts 139°
2026-04-30 18:20 50.84203 8.07082 24354 ft 448 kts 131°
2026-04-30 18:21 50.82201 8.10825 24352 ft 445 kts 123°
2026-04-30 18:21 50.80486 8.14878 24360 ft 444 kts 121°
2026-04-30 18:21 50.79332 8.17633 24360 ft 444 kts 121°
2026-04-30 18:21 50.77061 8.23014 24354 ft 444 kts 121°
2026-04-30 18:22 50.75900 8.25752 24355 ft 444 kts 121°
2026-04-30 18:22 50.72459 8.33846 24357 ft 444 kts 121°
2026-04-30 18:22 50.70601 8.37739 24359 ft 447 kts 129°
2026-04-30 18:23 50.68346 8.41153 24355 ft 451 kts 138°
2026-04-30 18:23 50.65751 8.43954 24371 ft 455 kts 147°
2026-04-30 18:23 50.62961 8.46317 24369 ft 456 kts 148°
2026-04-30 18:23 50.60157 8.48684 24368 ft 457 kts 148°
2026-04-30 18:24 50.54565 8.53420 24361 ft 457 kts 148°
2026-04-30 18:24 50.51767 8.55780 24358 ft 457 kts 148°
2026-04-30 18:24 50.48960 8.58142 24358 ft 457 kts 148°
2026-04-30 18:25 50.46148 8.60497 24351 ft 458 kts 149°
2026-04-30 18:25 50.40133 8.63939 24354 ft 464 kts 160°
2026-04-30 18:25 50.37034 8.65384 24348 ft 464 kts 160°
2026-04-30 18:26 50.30854 8.68289 24359 ft 464 kts 160°
2026-04-30 18:26 50.27754 8.69739 24360 ft 464 kts 160°
2026-04-30 18:26 50.24658 8.71182 24354 ft 464 kts 160°
2026-04-30 18:27 50.18471 8.74067 24350 ft 464 kts 160°
2026-04-30 18:27 50.15413 8.75491 24346 ft 464 kts 160°
2026-04-30 18:28 50.09164 8.78272 24340 ft 466 kts 165°
2026-04-30 18:28 50.05940 8.78927 24343 ft 470 kts 174°
2026-04-30 18:28 49.99413 8.77866 24342 ft 476 kts 190°
2026-04-30 18:29 49.96221 8.76747 24336 ft 476 kts 190°
2026-04-30 18:29 49.86508 8.73397 24332 ft 477 kts 190°
2026-04-30 18:30 49.80028 8.71172 24319 ft 478 kts 190°
2026-04-30 18:30 49.73526 8.69027 24319 ft 476 kts 186°
2026-04-30 18:31 49.70242 8.68525 24320 ft 475 kts 182°
2026-04-30 18:31 49.63663 8.67657 24318 ft 474 kts 182°
2026-04-30 18:32 49.57085 8.66771 24310 ft 475 kts 182°
2026-04-30 18:32 49.53791 8.66327 24309 ft 475 kts 182°
2026-04-30 18:32 49.47289 8.65449 24272 ft 458 kts 182°
2026-04-30 18:33 49.44088 8.65017 23167 ft 458 kts 182°
2026-04-30 18:33 49.37619 8.64170 20535 ft 471 kts 182°
2026-04-30 18:33 49.34374 8.63745 19637 ft 467 kts 182°
2026-04-30 18:34 49.31154 8.63315 18812 ft 462 kts 183°
2026-04-30 18:34 49.24829 8.62360 17147 ft 451 kts 184°
2026-04-30 18:34 49.21730 8.61854 16376 ft 445 kts 184°
2026-04-30 18:35 49.18671 8.61354 15648 ft 439 kts 184°
2026-04-30 18:35 49.15653 8.60869 14941 ft 433 kts 183°
2026-04-30 18:35 49.12672 8.60405 14248 ft 428 kts 183°
2026-04-30 18:36 49.06812 8.59536 12761 ft 417 kts 183°
2026-04-30 18:36 49.03940 8.59115 12122 ft 410 kts 183°
2026-04-30 18:36 48.98530 8.58522 11848 ft 368 kts 174°
2026-04-30 18:37 48.96082 8.58794 11689 ft 337 kts 173°
2026-04-30 18:37 48.93840 8.59057 11542 ft 311 kts 172°
2026-04-30 18:37 48.91734 8.59304 11068 ft 299 kts 172°
2026-04-30 18:37 48.89683 8.59549 10496 ft 293 kts 172°
2026-04-30 18:38 48.87673 8.59787 10167 ft 289 kts 173°
2026-04-30 18:38 48.85672 8.60025 9929 ft 286 kts 173°
2026-04-30 18:38 48.83723 8.60531 9789 ft 282 kts 160°
2026-04-30 18:38 48.81954 8.61765 9658 ft 279 kts 145°
2026-04-30 18:39 48.80467 8.63619 9528 ft 276 kts 130°
2026-04-30 18:39 48.79246 8.65876 9114 ft 278 kts 127°
2026-04-30 18:39 48.78057 8.68160 8630 ft 278 kts 127°
2026-04-30 18:39 48.76870 8.70445 8314 ft 273 kts 126°
2026-04-30 18:40 48.75687 8.72721 7704 ft 278 kts 126°
2026-04-30 18:40 48.74469 8.75067 6982 ft 287 kts 127°
2026-04-30 18:40 48.73271 8.77371 6243 ft 295 kts 127°
2026-04-30 18:40 48.71995 8.79817 5506 ft 299 kts 126°
2026-04-30 18:41 48.70716 8.82262 5177 ft 289 kts 126°
2026-04-30 18:41 48.69518 8.84541 5104 ft 261 kts 126°
2026-04-30 18:41 48.68434 8.86598 5045 ft 242 kts 126°
2026-04-30 18:41 48.67420 8.88525 4983 ft 226 kts 125°
2026-04-30 18:42 48.66471 8.90331 4896 ft 213 kts 125°
2026-04-30 18:42 48.64745 8.93683 4717 ft 195 kts 118°
2026-04-30 18:42 48.64266 8.95561 4586 ft 191 kts 99°
2026-04-30 18:45 48.67303 9.13346 2264 ft 134 kts 72°
2026-04-30 18:45 48.67561 9.14699 2072 ft 133 kts 78°
2026-04-30 18:45 48.67816 9.16038 1900 ft 134 kts 75°
2026-04-30 18:46 48.68070 9.17370 1716 ft 133 kts 73°
2026-04-30 18:46 48.68324 9.18703 1534 ft 132 kts 75°
2026-04-30 18:46 48.68577 9.20005 1351 ft 128 kts 75°
2026-04-30 18:46 48.68810 9.21274 1260 ft 113 kts 74°
2026-04-30 18:47 48.68982 9.22164 1247 ft 68 kts 73°
2026-04-30 18:47 48.69097 9.22769 1221 ft 44 kts 72°
2026-04-30 18:47 48.69229 9.23052 1216 ft 27 kts 45°
2026-04-30 18:47 48.69356 9.23150 1220 ft 19 kts 351°
2026-04-30 18:48 48.69403 9.23024 1225 ft 13 kts 263°
2026-04-30 18:48 48.69386 9.22912 1227 ft 9 kts 252°
2026-04-30 18:48 48.69369 9.22826 1229 ft 12 kts 253°
2026-04-30 18:48 48.69330 9.22621 1233 ft 21 kts 254°
2026-04-30 18:49 48.69293 9.22433 1246 ft 17 kts 253°
2026-04-30 18:49 48.69264 9.22281 1241 ft 15 kts 254°
2026-04-30 18:49 48.69236 9.22131 1244 ft 14 kts 254°
2026-04-30 18:49 48.69213 9.22004 1249 ft 12 kts 254°
2026-04-30 18:50 48.69186 9.21862 1255 ft 13 kts 254°
2026-04-30 18:50 48.69163 9.21738 1254 ft 16 kts 255°
2026-04-30 18:50 48.69132 9.21573 1263 ft 15 kts 253°
2026-04-30 18:50 48.69101 9.21416 1266 ft 17 kts 253°
2026-04-30 18:51 48.69070 9.21264 1267 ft 13 kts 253°
2026-04-30 18:51 48.69049 9.21147 1268 ft 11 kts 255°
2026-04-30 18:51 48.69030 9.21039 1273 ft 10 kts 255°
2026-04-30 18:51 48.69009 9.20934 1272 ft 12 kts 253°
2026-04-30 18:52 48.68981 9.20786 1276 ft 18 kts 254°
2026-04-30 18:52 48.68966 9.20631 1280 ft 13 kts 290°
2026-04-30 18:52 48.69012 9.20547 1284 ft 10 kts 314°
2026-04-30 18:52 48.69063 9.20462 1288 ft 8 kts 292°
2026-04-30 18:53 48.69054 9.20398 1290 ft 6 kts 239°
2026-04-30 18:53 48.69019 9.20399 1289 ft 6 kts 163°
2026-04-30 18:53 48.68987 9.20415 1288 ft 2 kts 163°
2026-04-30 18:53 48.68983 9.20417 1288 ft 0 kts 163°